Weather History for New River MCAS, NC

Change the Weather History Date:

Monday, January 6, 2014

  Actual Average Record
Temperature  
Mean Temperature 50 °F -  
Max Temperature 66 °F 55 °F 73 °F (1998)
Min Temperature 30 °F 34 °F 16 °F (1999)
Degree Days  
Heating Degree Days 16    
Moisture  
Dew Point 49 °F    
Average Humidity 81    
Maximum Humidity 97    
Minimum Humidity 35    
Precipitation  
Precipitation 0.12 in - - ()
Sea Level Pressure  
Sea Level Pressure 29.80 in    
Wind  
Wind Speed 12 mph (WSW)    
Max Wind Speed 25 mph    
Max Gust Speed 38 mph    
Visibility 9 miles    
Events Rain    
Averages and records for this station are not official NWS values.
T = Trace of Precipitation, MM = Missing Value Source: NWS Daily Summary

Daily Weather History Graph

Daily Weather History Graph

Search for Another Location

Airport:

Trip Planner

Search our weather history database for the weather conditions in past years. The results will help you decide how hot, cold, wet, or windy it might be!

Date:

Astronomy

Jan. 06, 2014 Rise Set
Actual Time 7:17 AM EST 5:13 PM EST
Civil Twilight 6:49 AM EST 5:41 PM EST
Nautical Twilight 6:18 AM EST 6:13 PM EST
Astronomical Twilight 5:47 AM EST 6:43 PM EST
Moon 10:47 AM EST (1/6) 11:28 PM EST (1/6)
Length of Visible Light 10h 51m
Length of Day
9h 56m
Waxing Crescent, 34% of the Moon is Illuminated
Jan 6
Waxing Crescent
Jan 7
First Quarter
Jan 15
Full
Jan 24
Last Quarter
Jan 30
New

Hourly Weather History & Observations

Time (EST) Temp. Windchill Dew Point Humidity Pressure Visibility Wind Dir Wind Speed Gust Speed Precip Events Conditions
12:23 AM 64.0 °F - 63.0 °F 96% 29.84 in 10.0 mi South 8.1 mph - N/A   Overcast
12:45 AM 64.0 °F - 63.0 °F 96% 29.82 in 10.0 mi South 8.1 mph - N/A   Partly Cloudy
12:56 AM 64.0 °F - 63.0 °F 96% 29.83 in 10.0 mi South 6.9 mph - N/A   Partly Cloudy
1:56 AM 63.0 °F - 62.1 °F 97% 29.81 in 10.0 mi South 6.9 mph - N/A   Clear
2:56 AM 64.0 °F - 62.1 °F 93% 29.79 in 10.0 mi SSW 11.5 mph - N/A   Clear
3:17 AM 64.0 °F - 62.1 °F 93% 29.78 in 10.0 mi SSW 11.5 mph - N/A   Partly Cloudy
3:31 AM 64.0 °F - 63.0 °F 96% 29.77 in 10.0 mi South 13.8 mph 21.9 mph N/A   Mostly Cloudy
3:56 AM 64.9 °F - 63.0 °F 93% 29.77 in 10.0 mi South 15.0 mph 21.9 mph N/A   Overcast
4:56 AM 64.9 °F - 63.0 °F 93% 29.74 in 10.0 mi SSW 13.8 mph 23.0 mph N/A   Mostly Cloudy
5:44 AM 66.0 °F - 63.0 °F 90% 29.74 in 10.0 mi SSW 10.4 mph 23.0 mph N/A   Mostly Cloudy
5:56 AM 66.0 °F - 63.0 °F 90% 29.74 in 10.0 mi SSW 10.4 mph 20.7 mph N/A   Scattered Clouds
6:52 AM 66.2 °F - 62.6 °F 88% 29.73 in 10.0 mi SSW 11.5 mph 18.4 mph N/A   Mostly Cloudy
6:56 AM 66.0 °F - 63.0 °F 90% 29.74 in 10.0 mi SSW 10.4 mph - N/A   Overcast
7:53 AM 66.2 °F - 62.6 °F 88% 29.71 in 10.0 mi SSW 16.1 mph 24.2 mph N/A   Scattered Clouds
7:56 AM 66.9 °F - 62.1 °F 84% 29.72 in 10.0 mi SW 11.5 mph 24.2 mph N/A   Partly Cloudy
8:56 AM 66.9 °F - 61.0 °F 81% 29.72 in 10.0 mi SW 12.7 mph 24.2 mph N/A   Clear
9:56 AM 66.9 °F - 59.0 °F 76% 29.72 in 10.0 mi SW 11.5 mph - N/A   Mostly Cloudy
10:45 AM 66.0 °F - 59.0 °F 78% 29.70 in 10.0 mi SW 11.5 mph 20.7 mph N/A   Overcast
10:56 AM 64.9 °F - 59.0 °F 81% 29.70 in 10.0 mi SW 13.8 mph 19.6 mph N/A   Overcast
11:47 AM 55.0 °F - 51.1 °F 86% 29.72 in 2.0 mi West 25.3 mph 38.0 mph 0.02 in Rain Rain
11:56 AM 53.1 °F - 51.1 °F 93% 29.73 in 2.5 mi WNW 24.2 mph 33.4 mph 0.03 in Rain Light Rain
11:59 AM 53.1 °F - 50.0 °F 89% 29.73 in 3.0 mi West 23.0 mph 32.2 mph 0.00 in Rain Light Rain
12:44 PM 50.0 °F - 46.0 °F 86% 29.73 in 4.0 mi West 16.1 mph 28.8 mph 0.02 in Rain Rain
12:56 PM 48.9 °F - 46.0 °F 90% 29.73 in 3.0 mi West 15.0 mph 28.8 mph 0.04 in Rain Light Rain
1:11 PM 48.0 °F - 46.0 °F 93% 29.73 in 1.8 mi WSW 12.7 mph 21.9 mph 0.05 in Rain Heavy Rain
1:16 PM 48.9 °F - 46.9 °F 93% 29.73 in 3.0 mi WSW 12.7 mph - 0.05 in Rain Light Rain
1:27 PM 48.9 °F - 46.9 °F 93% 29.73 in 10.0 mi WSW 13.8 mph 18.4 mph 0.05 in   Overcast
1:56 PM 50.0 °F - 46.9 °F 89% 29.75 in 10.0 mi West 10.4 mph - 0.05 in   Overcast
2:45 PM 51.1 °F - 46.9 °F 86% 29.75 in 10.0 mi West 13.8 mph 18.4 mph N/A   Overcast
2:56 PM 51.1 °F - 46.9 °F 86% 29.76 in 10.0 mi West 11.5 mph - N/A   Overcast
3:05 PM 51.1 °F - 46.9 °F 86% 29.76 in 10.0 mi West 11.5 mph 19.6 mph N/A   Overcast
3:37 PM 51.1 °F - 43.0 °F 74% 29.78 in 10.0 mi West 17.3 mph 23.0 mph N/A   Mostly Cloudy
4:56 PM 46.9 °F - 34.0 °F 61% 29.84 in 10.0 mi West 18.4 mph 32.2 mph N/A   Partly Cloudy
5:56 PM 44.1 °F 37.1 °F 30.0 °F 58% 29.88 in 10.0 mi West 15.0 mph - N/A   Clear
6:56 PM 42.1 °F 34.9 °F 21.9 °F 45% 29.93 in 10.0 mi West 13.8 mph - N/A   Clear
7:56 PM 39.9 °F 34.5 °F 23.0 °F 51% 29.97 in 10.0 mi West 8.1 mph - N/A   Clear
8:56 PM 39.0 °F 31.8 °F 21.9 °F 50% 30.01 in 10.0 mi WNW 11.5 mph - N/A   Overcast
9:56 PM 36.0 °F 25.3 °F 14.0 °F 41% 30.07 in 10.0 mi WNW 19.6 mph 32.2 mph N/A   Overcast
10:56 PM 33.1 °F 22.2 °F 10.9 °F 40% 30.11 in 10.0 mi NW 17.3 mph 28.8 mph N/A   Scattered Clouds
11:56 PM 30.0 °F 18.3 °F 5.0 °F 35% 30.14 in 10.0 mi WNW 17.3 mph - N/A   Clear